Weather in Beni

Democratic Republic of the Congo     0°29′31″N   29°27′36″E
temp.,
°C
wind,
m/s
gust,
m/s
humid.,
%
clouds,
%
prec.,
mm/h
press.,
hPa
HPBL,
m
11 may, tue
tue1101:00+18sse12100100 2.9 101461
04:00+18sse11100100 3.1 101539
07:00+19se0099100 3.4 101770
10:00+22nne018884 1.8 1016354
13:00+23sw1287100 3.9 1012647
16:00+19se019997 2.8 101325
19:00+19wnw1198100 3.9 101514
22:00+18sw00100100 3.1 101630
12 may, wed
wed1201:00+18s12100100 4.9 101580
04:00+17sse1499100 0.3 1015151
07:00+19se2597100 0.3 1016325
10:00+24se236684 0.2 1015851
13:00+25s2266100 1.3 10121041
16:00+21sse1285100 0.8 1012136
19:00+19sse1293100 0.8 101560
22:00+18se1396100 0.0 101672
13 may, thu
thu1301:00+17se1397100 0.0 101493
04:00+17se139681 0.0 1014107
07:00+21ese248097 0.0 1016419
10:00+27se235268 0.0 10141250
13:00+29ese2243100 0.1 10092001
16:00+26s116279 0.0 100963
19:00+21s248243 0.1 101293
22:00+19s128878 0.1 101335
14 may, fri
fri1401:00+19sse118289 0.1 101230
04:00+18se119138 0.0 101414
07:00+22se127263 0.0 1015263
10:00+29e114843 0.1 10121375
13:00+28wsw225398 0.4 1009866
16:00+21se1294100 0.9 101138
19:00+18s1298100 3.1 101355
22:00+18s119873 1.4 101427
15 may, sat
sat1501:00+17sse129975 2.3 101342
04:00+17sse119999 0.5 101435
07:00+20se13905 0.5 1015205
10:00+29sse225014 0.4 10121399
13:00+31se224083 0.5 10082313
16:00+24s1470100 0.1 1010139
19:00+19s1293100 0.8 101259
22:00+18s1198100 1.7 101430